FENGYUN 4B

Last updated on Mon Oct 14 2024 00:02:41 GMT+0000 (Coordinated Universal Time)

1 48808U 21047A 24287.32896694 -.00000331 00000+0 00000+0 0 9998 2 48808 0.1830 277.3914 0005800 144.8296 183.2387 1.00266053 12426
UTC large
Height (km)
Speed (km/s)
/
Latitude / Longitude
Inclination (degrees)
Orbital Period (minutes)
Azimuth
Elevation
Range (km)
Doppler Factor

Next 0 passes for location: London (51.5072 / 0.1276)

Sorry there are no passes over London.